FW1364 Weather Reports


time (UTC)temp
C
wind
direction
speed
KPH
gust
KPH
rain 1hr
cm
rain 24hr
cm
rain mn
cm
humidity
%
barometer
mb
20260504044552 4 232 0.0 0.0 0.00 0.00 0.00 86 1014.8
20260504043045 3 232 0.0 0.0 0.00 0.00 0.00 86 1014.9
20260504041542 3 231 0.0 0.0 0.00 0.00 0.00 85 1014.8
20260504040054 3 232 0.0 0.0 0.00 0.00 0.00 84 1014.8
20260504034555 3 232 0.0 0.0 0.00 0.00 0.00 84 1014.8
20260504033052 4 232 0.0 0.0 0.00 0.00 0.00 83 1014.8
20260504031538 4 232 0.0 0.0 0.00 0.00 0.00 83 1014.8
20260504030044 5 231 0.0 0.0 0.00 0.00 0.00 82 1015.0
20260504024508 5 232 0.0 0.0 0.00 0.00 0.00 81 1015.0
20260504023006 5 232 0.0 0.0 0.00 0.00 0.00 80 1015.0
20260504021506 6 232 0.0 0.0 0.00 0.00 0.00 80 1015.1
20260504020005 6 231 0.0 0.0 0.00 0.00 0.00 79 1015.0
20260504014515 6 232 0.0 0.0 0.00 0.00 0.00 78 1015.0
20260504013005 7 231 0.0 0.0 0.00 0.00 0.00 77 1014.9
20260504011504 7 232 0.0 0.0 0.00 0.00 0.00 75 1014.8
20260504010003 8 231 0.0 0.0 0.00 0.00 0.00 72 1014.8
20260504004509 8 232 0.0 0.0 0.00 0.00 0.00 70 1014.7
20260504003008 9 232 0.0 0.0 0.00 0.00 0.00 67 1014.7
20260504001502 10 232 0.0 0.0 0.00 0.00 0.00 64 1014.7
20260504000002 11 232 0.0 0.0 0.00 0.00 0.00 58 1014.7
20260503234501 13 232 0.0 0.0 0.00 0.00 0.00 45 1014.7
20260503233100 13 235 0.0 0.0 0.00 0.00 0.00 43 1014.8
20260503231559 13 232 0.0 0.0 0.00 0.00 0.00 43 1014.9
20260503230104 13 273 0.0 0.0 0.00 0.00 0.00 45 1014.9
20260503224557 14 304 0.0 1.6 0.00 0.00 0.00 42 1015.0
20260503223100 14 288 0.0 6.4 0.00 0.00 0.00 42 1015.1
20260503221556 14 194 0.0 6.4 0.00 0.00 0.00 41 1015.1
20260503220056 14 260 0.0 0.0 0.00 0.00 0.00 42 1015.2
20260503214555 14 231 0.0 0.0 0.00 0.00 0.00 40 1015.3
20260503213106 14 196 0.0 1.6 0.00 0.00 0.00 40 1015.0
20260503211553 15 204 0.0 1.6 0.00 0.00 0.00 38 1015.0
20260503210100 15 206 0.0 0.0 0.00 0.00 0.00 39 1015.1
20260503204555 15 310 0.0 6.4 0.00 0.00 0.00 40 1015.4
20260503203050 15 183 0.0 4.8 0.00 0.00 0.00 42 1015.6
20260503201547 15 261 0.0 1.6 0.00 0.00 0.00 39 1016.0
20260503200054 15 232 0.0 3.2 0.00 0.00 0.00 39 1016.2
20260503194547 16 215 0.0 6.4 0.00 0.00 0.00 43 1016.4
20260503193051 14 298 0.0 6.4 0.00 0.00 0.00 42 1016.5
20260503191542 15 207 0.0 4.8 0.00 0.00 0.00 40 1016.8
20260503190039 15 283 0.0 4.8 0.00 0.00 0.00 47 1017.0
20260503184548 13 194 0.0 6.4 0.00 0.00 0.00 47 1017.2
20260503183052 14 191 0.0 3.2 0.00 0.00 0.00 47 1017.3
20260503181535 15 277 0.0 4.8 0.00 0.00 0.00 43 1017.4
20260503180041 15 210 0.0 11.3 0.00 0.00 0.00 39 1017.7
20260503174530 14 217 0.0 1.6 0.00 0.00 0.00 46 1017.6
20260503173042 13 220 0.0 1.6 0.00 0.00 0.00 44 1018.0
20260503171528 13 248 0.0 3.2 0.00 0.00 0.00 44 1018.1
20260503150104 11 254 0.0 4.8 0.00 0.00 0.00 46 1019.2
20260503081540 1 292 0.0 0.0 0.00 0.03 0.00 91 1018.0
20260503071542 0 292 0.0 0.0 0.00 0.03 0.00 90 1017.6